Barksdale AFB, LA

4:39 PM CDT on September 25, 2017 (GMT -0500)
Barksdale Air Force Base

Weather History for KBAD - November, 2012

Change the Weather History Date:

Thursday, November 15, 2012

  Actual Average Record
Temperature  
Mean Temperature 44 °F -  
Max Temperature 57 °F 63 °F 82 °F (2005)
Min Temperature 31 °F 44 °F 28 °F (1997)
Degree Days  
Heating Degree Days 21    
Moisture  
Dew Point 32 °F    
Average Humidity 69    
Maximum Humidity 91    
Minimum Humidity 29    
Precipitation  
Precipitation 0.00 in - - ()
Sea Level Pressure  
Sea Level Pressure 30.33 in    
Wind  
Wind Speed 1 mph (North)    
Max Wind Speed 8 mph    
Max Gust Speed -    
Visibility 10 miles    
Events      
Averages and records for this station are not official NWS values.
T = Trace of Precipitation, MM = Missing Value Source: NWS Daily Summary

Daily Weather History Graph

Daily Weather History Graph

Search for Another Location

Airport or City:

Trip Planner

Search our weather history database for the weather conditions in past years. The results will help you decide how hot, cold, wet, or windy it might be!

Date:

Astronomy

Nov. 15, 2012 Rise Set
Actual Time 6:44 AM CST 5:13 PM CST
Civil Twilight 6:18 AM CST 5:39 PM CST
Nautical Twilight 5:48 AM CST 6:09 PM CST
Astronomical Twilight 5:19 AM CST 6:38 PM CST
Moon 8:37 AM CST (11/15) 7:09 PM CST (11/15)
Length of Visible Light 11h 21m
Length of Day
10h 28m
Waxing Crescent, 5% of the Moon is Illuminated
Nov 15
Waxing Crescent
Nov 20
First Quarter
Nov 28
Full
Dec 6
Last Quarter
Dec 13
New

Hourly Weather History & Observations

Time (CST) Temp. Windchill Dew Point Humidity Pressure Visibility Wind Dir Wind Speed Gust Speed Precip Events Conditions
12:55 AM 35.2 °F - 32.9 °F 91% 30.32 in 10.0 mi Calm Calm - N/A   Clear
1:55 AM 35.2 °F - 31.8 °F 87% 30.32 in 10.0 mi Calm Calm - N/A   Clear
2:55 AM 34.0 °F - 31.6 °F 91% 30.34 in 10.0 mi Calm Calm - N/A   Clear
3:55 AM 33.8 °F - 31.3 °F 90% 30.33 in 10.0 mi Calm Calm - N/A   Clear
4:55 AM 32.2 °F - 29.3 °F 89% 30.32 in 10.0 mi Calm Calm - N/A   Clear
5:55 AM 32.7 °F - 29.5 °F 88% 30.34 in 10.0 mi Calm Calm - N/A   Clear
6:55 AM 31.5 °F - 28.4 °F 88% 30.35 in 10.0 mi Calm Calm - N/A   Clear
7:55 AM 35.4 °F - 31.1 °F 84% 30.37 in 10.0 mi Calm Calm - N/A   Clear
8:55 AM 42.1 °F 39.2 °F 34.2 °F 74% 30.38 in 10.0 mi North 4.6 mph - N/A   Clear
9:55 AM 49.5 °F - 34.3 °F 56% 30.38 in 10.0 mi North 5.8 mph - N/A   Clear
10:55 AM 52.7 °F - 31.6 °F 45% 30.36 in 10.0 mi Variable 5.8 mph - N/A   Clear
11:55 AM 55.9 °F - 26.4 °F 32% 30.35 in 10.0 mi NE 8.1 mph - N/A   Partly Cloudy
12:55 PM 57.6 °F - 26.1 °F 30% 30.31 in 10.0 mi North 6.9 mph - N/A   Partly Cloudy
1:55 PM 57.4 °F - 25.5 °F 29% 30.30 in 7.0 mi Variable 4.6 mph - N/A   Clear
2:55 PM 56.3 °F - 29.3 °F 36% 30.29 in 10.0 mi North 6.9 mph - N/A   Mostly Cloudy
3:55 PM 55.0 °F - 30.0 °F 38% 30.28 in 10.0 mi NNE 3.5 mph - N/A   Partly Cloudy
4:55 PM 52.3 °F - 29.7 °F 42% 30.29 in 10.0 mi Calm Calm - N/A   Partly Cloudy
5:55 PM 48.2 °F - 34.7 °F 60% 30.30 in 10.0 mi Calm Calm - N/A   Clear
6:55 PM 42.8 °F - 35.4 °F 75% 30.32 in 10.0 mi Calm Calm - N/A   Clear
7:55 PM 41.9 °F - 35.4 °F 78% 30.34 in 10.0 mi Calm Calm - N/A   Clear
8:55 PM 39.9 °F - 35.2 °F 83% 30.35 in 10.0 mi Calm Calm - N/A   Clear
9:55 PM 38.5 °F - 34.9 °F 87% 30.35 in 10.0 mi Calm Calm - N/A   Clear
10:55 PM 37.8 °F - 34.3 °F 87% 30.35 in 10.0 mi Calm Calm - N/A   Clear
11:55 PM 37.2 °F - 34.5 °F 90% 30.36 in 10.0 mi Calm Calm - N/A   Clear